Location: A G Wilson House
(33.2015°N, 96.6269°W)
Time: 04:25:32
(UTC+00:00)

Daily predictions for brighter satellites

Satellite Brightness Start Highest point End
(mag) Time Altitude Azimuth Time Altitude Azimuth Time Altitude Azimuth
Cosmos 1821 Rocket 4.1 01:55:20 10° N 02:01:31 85° W 02:07:36 10° S
SL-16 R/B 2.2 01:59:32 10° S 02:05:07 66° ESE 02:10:44 10° NNE
Cosmos 2322 Rocket 2.4 02:00:14 10° S 02:05:41 49° ESE 02:11:09 10° NNE
Centaur D-1AR AC-36 3.5 02:05:29 10° SW 02:07:11 13° S 02:09:07 10° SSE
OBJECT-B 1.0 02:05:11 10° SSE 02:08:17 50° ENE 02:11:24 10° N
Cosmos 1470 4.2 02:05:57 10° NNE 02:09:06 22° ENE 02:12:13 10° SE
ATLAS 3B R/B 3.7 02:05:05 10° SSE 02:09:35 20° ESE 02:14:07 10° ENE
USA 234 4.1 02:04:31 10° SSE 02:10:44 47° SW 02:17:01 10° NW
NOSS 3-2 (C) 4.2 02:05:48 10° SW 02:11:06 54° NW 02:17:04 10° NNE
MOS 1-B Rocket 4.2 02:05:38 10° N 02:11:15 74° WNW 02:17:22 10° SSW
Cosmos 1420 Rocket 4.0 02:06:17 10° SSW 02:11:27 88° WNW 02:16:40 10° NNE
KM-V1 3.5 02:10:12 10° WSW 02:12:19 47° S 02:15:26 10° E
FALCON 9 DEB 3.2 02:09:58 10° SSW 02:12:51 40° SE 02:15:47 10° ENE
Cosmos 1378 Rocket 3.5 02:10:29 10° S 02:14:45 65° E 02:19:05 10° NNE
Okean 1 Rocket 4.0 02:13:33 10° NNE 02:17:25 30° E 02:21:17 10° SE
Cosmos 1190 Rocket 4.0 02:12:11 10° NNW 02:17:30 76° ENE 02:22:47 10° SSE
SJ-6B 2.9 02:14:00 10° SSE 02:18:05 69° ENE 02:22:07 10° N
CZ-4 R/B 4.1 02:16:02 10° SW 02:18:15 15° W 02:20:29 10° WNW
FALCON 9 DEB 3.5 02:16:55 10° SSW 02:19:44 34° SE 02:22:36 10° ENE
Cosmos 2227 4.4 02:16:51 10° N 02:22:21 55° ENE 02:27:47 10° SE
Cosmos 1733 4.2 02:19:02 10° NNW 02:22:46 49° W 02:26:28 10° SSW
FALCON 9 DEB 3.0 02:20:06 10° SSW 02:23:06 50° SE 02:26:07 10° NE
Cosmos 1238 4.3 02:20:21 10° S 02:23:57 67° E 02:27:02 10° NNE
Resurs 1-3 4.1 02:20:50 10° SE 02:24:57 42° ENE 02:29:06 10° N
USA 186 2.4 02:22:51 10° S 02:25:31 47° W 02:28:22 10° NNW
Helios 1A Rocket 3.4 02:27:02 10° S 02:31:02 59° W 02:35:02 10° NNW
Cosmos 2237 4.2 02:27:47 10° S 02:33:22 61° ESE 02:38:59 10° NNE
Cosmos 1934 Rocket 4.0 02:28:45 10° N 02:34:54 85° W 02:41:07 10° S
Cosmos 1626 4.3 02:35:59 11° E 02:36:15 11° E 02:37:05 10° ENE
Cosmos 1315 Rocket 3.3 02:33:16 10° N 02:37:14 44° E 02:40:17 15° SSE
Cosmos 1707 2.7 02:33:27 10° S 02:37:16 66° E 02:41:08 10° NNE
Meteor 1-21 4.2 02:32:05 10° S 02:37:45 86° E 02:43:24 10° N
Cosmos 1844 Rocket 4.4 02:36:57 10° NNE 02:40:46 18° ENE 02:44:09 11° E
IRS-1A Rocket 4.4 02:35:13 10° SSE 02:41:05 73° ENE 02:46:52 10° N
Ariane Rocket 3.0 02:39:06 11° SSE 02:44:03 73° ENE 02:49:08 10° N
SPOT 3 Rocket 4.3 02:42:00 16° SE 02:45:32 36° ENE 02:50:14 10° N
SL-4 R/B 3.7 02:42:38 10° S 02:49:25 - ENE 02:44:16 16° SSE
Meteor 2-20 4.4 02:42:47 10° S 02:48:53 83° E 02:54:59 10° N
ERS-2 3.9 02:45:40 10° N 02:49:00 34° WNW 02:52:20 10° SW
Cosmos 1954 Rocket 4.0 02:44:10 10° NNW 02:49:31 89° W 02:54:05 14° SSE
Cosmos 676 Rocket 4.0 02:45:39 10° NNW 02:51:01 89° WSW 02:55:32 15° SSE
CZ-2C R/B 4.3 02:47:15 10° NNE 02:51:45 40° E 02:55:05 16° SSE
Lacrosse 5 rocket 2.1 02:50:40 10° SW 02:54:20 48° NW 02:57:53 10° NNE
Lacrosse 5 1.9 02:50:20 10° NW 02:55:24 71° NE 02:58:35 23° SE
Cosmos 2263 Rocket 2.6 02:49:51 10° NNW 02:55:29 63° WSW 03:00:40 12° S
In-Cosmos 22 4.0 02:51:00 10° S 02:56:15 73° E 03:01:31 10° NNE
Cosmos 1758 3.4 02:53:57 10° N 02:57:52 58° E 03:00:01 24° SSE
ATLAS 2A CENTAUR R/B 3.8 02:37:27 10° SW 02:59:07 40° S 03:03:32 21° ESE
Cosmos 1975 Rocket 3.1 02:58:54 17° S 03:02:03 58° E 03:06:21 10° NNE
Landsat 7 4.0 02:59:40 23° SE 03:02:27 53° ENE 03:07:05 10° N
Cosmos 1727 Rocket 4.0 02:57:11 10° S 03:03:30 84° E 03:09:48 10° N
Cosmos 1110 Rocket 3.9 03:01:50 10° S 03:06:57 72° ESE 03:12:08 10° NNE
Cosmos 2333 4.4 03:01:30 10° S 03:07:01 50° ESE 03:12:33 10° NNE
Yuri Rocket 4.3 03:01:58 10° WSW 03:07:41 50° SSE 03:14:28 14° E
Delta 128 4.4 03:04:17 10° WSW 03:08:20 34° S 03:09:42 28° SSE
Resurs 01 Rocket 1.5 03:06:34 24° SSE 03:09:11 78° ENE 03:13:35 10° N
Cosmos 1605 Rocket 4.3 03:05:53 10° NNW 03:12:12 68° W 03:18:22 10° S
KORONAS-FOTON 3.6 03:12:02 27° S 03:14:00 75° E 03:17:47 10° N
Cosmos 2333 Rocket 2.3 03:16:10 17° S 03:20:27 53° ESE 03:26:01 10° NNE
Cosmos 1674 2.5 03:19:14 28° S 03:21:05 86° W 03:24:48 10° N
USA 81 4.0 03:16:31 10° N 03:21:48 86° W 03:25:10 23° S
Cosmos 2219 Rocket 2.5 03:19:18 26° SSE 03:22:07 45° ESE 03:27:30 10° NE
Cosmos 1953 2.7 03:18:55 10° N 03:22:50 46° E 03:23:31 41° ESE
BREEZE-M DEB (TANK) 3.8 03:23:45 10° W 03:25:43 23° NNW 03:28:07 10° NNE
Cosmos 1726 3.9 03:24:03 10° NNW 03:27:12 28° W 03:29:46 14° SSW
ASTRO E2 2.6 03:25:47 10° WSW 03:29:43 64° S 03:30:13 57° SE
Cosmos 1802 Rocket 4.4 03:25:18 10° N 03:31:19 45° E 03:33:34 33° SE
Cosmos 1844 4.3 03:30:10 10° N 03:35:27 42° ENE 03:37:07 33° ESE
Cosmos 1459 Rocket 4.0 03:29:53 10° N 03:35:52 62° E 03:38:14 37° SSE
Cosmos 1000 Rocket 4.4 03:35:49 20° S 03:40:13 85° W 03:46:23 10° N
Cosmos 2237 Rocket 4.1 03:44:17 14° ENE 03:44:17 14° ENE 03:45:51 10° ENE
ERS-1 Rocket 3.5 03:44:13 38° E 03:45:03 41° ENE 03:49:46 10° N
Cosmos 1340 2.7 03:46:01 61° ENE 03:46:01 61° ENE 03:49:24 10° NNE
Cosmos 2360 Rocket 3.6 03:40:51 10° SW 03:46:03 37° WNW 03:51:16 10° N
ARIANE 5 R/B 2.8 03:45:36 52° ESE 03:46:06 55° ENE 03:50:29 10° N
Spot 2 Rocket 3.5 03:46:38 50° SE 03:47:51 69° ENE 03:52:54 10° N
Cosmos 1850 Rocket 4.1 03:43:27 10° NNW 03:48:42 70° WSW 03:50:27 41° S
Meteor 1-24 Rocket 4.2 03:49:56 37° E 03:50:02 37° E 03:54:59 10° NNE
Cosmos 1544 Rocket 3.5 03:46:14 10° N 03:50:39 63° E 03:50:53 61° E
Cosmos 1455 Rocket 3.4 03:50:43 10° NNW 03:55:08 63° W 03:56:07 48° SSW
SPOT 1/Viking Rocket 3.7 03:54:25 40° SSW 03:56:10 65° W 04:01:17 10° NNW
NOSS 0 Rocket 4.5 03:58:45 37° E 03:58:45 37° E 04:04:09 10° NE
ATLAS 3B R/B 3.1 03:53:14 10° SW 03:59:38 59° WNW 04:06:12 10° NNE
Cosmos 2123 Rocket 3.9 04:03:20 39° S 04:05:53 87° W 04:12:14 10° N
Uosat 12 SS-18 rocket 4.2 04:06:19 49° SW 04:07:20 70° WNW 04:11:57 10° NNE
Cosmos 1908 4.1 04:05:56 10° NNW 04:09:35 43° W 04:09:39 42° W
Cosmos 1626 3.6 04:10:27 29° W 04:11:03 31° W 04:14:22 10° NNW
Cosmos 2061 Rocket 4.0 04:05:16 10° N 04:11:43 77° E 04:13:10 55° SSE
Cosmos 2322 4.4 04:06:40 11° SW 04:11:52 51° WNW 04:17:22 10° N
Cosmos 1302 Rocket 4.4 04:09:48 30° SW 04:12:16 61° WNW 04:17:29 10° N
Terra 2.1 04:12:29 53° ENE 04:12:29 53° ENE 04:16:59 10° N
Cosmos 1461 3.3 04:08:19 10° NW 04:11:53 56° WNW 04:11:53 56° WNW
COSMOS 2428 2.8 04:10:08 35° SSW 04:12:39 78° WNW 04:18:25 10° NNE
Cosmos 1900 4.3 04:08:26 10° NNW 04:13:18 68° ENE 04:13:22 68° ENE
Aureole 1 Rocket 4.4 04:07:41 10° NNW 04:14:20 74° WSW 04:17:14 42° S
SPOT 5 2.8 04:16:00 77° SSE 04:16:24 88° E 04:21:24 10° NNW
Cosmos 1536 Rocket 3.7 04:17:04 69° W 04:17:10 69° W 04:21:37 10° N
ATLAS CENTAUR R/B 2.2 04:12:56 10° NNW 04:16:58 47° NE 04:16:58 47° NE
Cosmos 2233 Rocket 4.2 04:13:13 10° N 04:19:10 49° E 04:19:39 48° E
BREEZE M DEB (TANK) 4.4 04:17:20 10° SW 04:21:36 81° NW 04:38:48 10° NE
IUS-18 SRM-1 3.9 04:14:17 10° WSW 04:20:37 35° SW 04:20:37 35° SW
Cosmos 2278 Rocket 3.9 04:17:45 10° NNE 04:21:52 20° ENE 04:22:35 20° ENE
Cosmos 1844 Rocket 3.0 04:19:26 10° NNW 04:24:58 55° WSW 04:25:49 50° SW
SL-4 R/B 2.8 04:20:53 10° WSW 04:25:04 49° NW 04:28:56 10° NE
USA 215 3.1 04:24:39 10° NE 04:31:11 73° SE 04:32:55 51° SSW
Lacrosse 5 4.1 04:35:22 10° W 04:37:48 14° WSW 04:37:48 14° WSW
Cosmos 2016 Rocket 4.4 04:37:29 10° NNW 04:43:23 52° W 04:44:37 45° SW
Meteor 2-10 Rocket 3.9 04:47:10 10° N 04:51:13 55° NNE 04:51:13 55° NNE
Cosmos 1980 3.7 04:53:24 72° NNE 04:53:24 72° NNE 04:58:29 10° NNE
Cosmos 968 Rocket 3.7 04:49:08 10° NNW 04:53:28 63° N 04:53:28 63° N
Cosmos 1486 Rocket 4.5 04:51:22 10° N 04:55:40 54° NNE 04:55:40 54° NNE
Cosmos 1992 Rocket 4.4 04:57:08 58° WNW 04:57:08 58° WNW 05:02:11 10° N
Cosmos 2219 Rocket 4.4 05:02:00 10° WSW 05:06:14 21° WNW 05:10:30 10° N
ATLAS CENTAUR R/B 3.2 05:08:15 53° NE 05:08:15 53° NE 05:15:12 10° NE
SL-16 R/B 3.5 05:25:29 31° NE 05:25:29 31° NE 05:28:37 10° NE
Cosmos 2237 Rocket 2.8 05:26:03 51° WNW 05:26:03 51° WNW 05:31:24 10° N
SJ 16-02 4.1 05:30:38 10° NE 05:30:53 10° NE 05:30:53 10° NE
Cosmos 2034 Rocket 4.4 05:37:27 10° N 05:42:38 53° NE 05:42:38 53° NE
GEOS 3 Rocket 4.5 05:47:15 46° NNE 05:47:15 46° NNE 05:51:42 10° NNW
Terra 4.4 05:51:22 11° W 05:51:22 11° W 05:52:13 10° WNW
NOSS 3-1 (C) 4.2 05:53:14 40° NE 05:53:14 40° NE 05:56:55 10° NNE
Tsikada Rocket 4.3 06:05:58 63° NNE 06:05:58 63° NNE 06:11:03 10° N
Cosmos 2278 Rocket 3.3 06:00:44 10° NNW 06:04:25 36° WNW 06:04:25 36° WNW
Cosmos 1943 Rocket 3.1 06:29:46 10° N 06:33:59 42° NNE 06:33:59 42° NNE
USA 267 3.9 06:41:13 40° E 06:43:03 50° NE 06:49:19 10° NNW
CZ-2D R/B 4.4 06:45:29 10° ENE 06:47:12 14° ENE 06:47:12 14° ENE
Cosmos 2279 Rocket 4.3 06:53:51 10° N 06:59:19 62° NE 06:59:19 62° NE
Cosmos 1634 Rocket 4.4 06:56:21 10° NNW 07:01:35 59° NW 07:01:35 59° NW
SL-16 R/B 4.0 07:07:19 21° WNW 07:07:32 21° WNW 07:11:47 10° N
SJ 16-02 3.7 07:06:35 10° NNW 07:07:51 18° NNW 07:07:51 18° NNW
Cosmos 1898 Rocket 4.5 07:13:01 10° N 07:17:07 43° NE 07:17:07 43° NE
Cosmos 2369 Rocket 2.6 07:21:02 10° NNW 07:25:56 60° NNE 07:25:56 60° NNE
Exosat Rocket 4.4 07:27:41 54° WNW 07:27:41 54° WNW 07:33:02 10° N
Nadezhda 4 Rocket 4.0 07:29:04 72° NE 07:29:04 72° NE 07:34:40 10° N
ATLAS 5 CENTAUR R/B 3.6 07:34:05 22° NE 07:34:05 22° NE 07:35:39 10° NE
Cosmos 2263 4.5 07:35:25 10° NNW 07:40:42 62° NE 07:40:42 62° NE
Lacrosse 4 Rocket 4.3 07:41:08 10° NNE 07:42:30 11° NE 07:43:52 10° ENE
Aureole 3 Rocket 4.5 07:44:15 10° NNE 07:48:31 41° E 07:48:34 41° E
Meteor 2-2 Rocket 4.4 07:45:50 10° N 07:51:26 76° NW 07:51:26 76° NW
Cosmos 2098 Rocket 4.0 07:56:36 55° NNW 07:56:36 55° NNW 08:00:29 10° N
Cosmos 2208 Rocket 4.2 07:58:36 70° NE 07:58:36 70° NE 08:03:27 10° NNE
Cosmos 921 Rocket 4.5 07:59:46 32° N 07:59:46 32° N 08:02:11 10° N
SL-16 R/B 2.9 08:00:14 46° ESE 08:01:46 59° ENE 08:07:50 10° N
Cosmos 1627 Rocket 4.4 08:06:29 71° SE 08:07:04 77° E 08:13:26 10° N
Resurs 1-4 Rocket 2.2 08:03:46 10° N 08:08:42 73° NNW 08:08:42 73° NNW
Cosmos 1092 Rocket 3.8 08:09:41 81° WSW 08:09:53 82° W 08:16:02 10° N
Cosmos 2151 4.0 08:11:14 44° NE 08:11:14 44° NE 08:14:15 10° NNE
X-37B 4.1 08:10:59 10° N 08:11:41 11° N 08:12:23 10° NNE
CZ-4C R/B 3.6 08:12:05 21° ESE 08:12:05 21° ESE 08:15:40 10° ENE
Meteor 2-19 Rocket 4.3 08:12:44 75° WSW 08:12:56 76° W 08:19:05 10° N
Cosmos 1943 Rocket 4.4 08:14:48 10° WNW 08:15:29 12° WNW 08:15:29 12° WNW
ADEOS II 2.4 08:15:01 10° NNE 08:20:12 56° E 08:20:33 55° ESE
Meteor 2-3 Rocket 3.9 08:20:40 57° SE 08:21:20 61° E 08:26:50 10° NNE
NPP 3.5 08:16:34 10° N 08:21:56 77° WNW 08:21:56 77° WNW
Cosmos 1428 Rocket 4.3 08:22:50 70° SW 08:23:33 80° W 08:29:52 10° N
USA 267 4.3 08:28:31 29° W 08:28:31 29° W 08:32:03 10° WNW
CZ-2D R/B 2.4 08:23:39 10° N 08:28:31 51° WNW 08:28:31 51° WNW
GPS 2-04 Rocket1 3.8 08:32:08 43° NE 08:32:08 43° NE 08:34:58 10° ENE
AQUA 3.9 08:26:23 10° N 08:30:49 71° NW 08:30:49 71° NW
ERBS 4.4 08:35:36 26° NNE 08:35:36 26° NNE 08:37:11 10° NE
IDEFIX/ARIANE 42P 3.6 08:29:13 10° NNE 08:34:04 38° E 08:35:30 32° SE
Cosmos 2221 4.4 08:30:48 10° NNW 08:32:29 20° NW 08:32:29 20° NW
Delta 2 Rocket 4.5 08:37:21 36° E 08:37:21 36° E 08:39:47 10° E
Cosmos 1809 Rocket 4.4 08:39:11 51° S 08:40:49 79° E 08:47:01 10° N
Cosmos 1782 4.3 08:39:10 10° NNE 08:42:48 32° E 08:43:52 28° ESE
CBERS-1 4.1 08:46:32 10° NNE 08:51:40 69° ESE 08:52:55 50° SSE
IRS-1D 3.4 08:47:11 10° NNE 08:52:17 90° ENE 08:53:07 63° SSW
Helios 1B rocket 3.9 08:52:51 10° NNW 08:55:36 25° NW 08:55:36 25° NW
Tianhe-1 2.8 08:58:01 29° E 08:58:01 29° E 08:59:47 10° ENE
ATLAS 2A CENTAUR R/B 3.8 09:06:09 25° SE 09:06:09 25° SE 09:10:06 10° ESE
Meteor 1-28 Rocket 3.2 09:05:33 66° SE 09:05:58 76° E 09:09:46 10° N
Chunghua 1 4.5 09:09:39 74° NNW 09:09:48 75° N 09:13:26 10° E
Meteor 2-14 Rocket 4.4 09:07:57 42° SSW 09:10:06 71° W 09:16:13 10° N
Cosmos 1933 3.7 09:07:00 10° NNW 09:10:38 49° WNW 09:10:38 49° WNW
Meteor 2-21 Rocket 4.4 09:09:18 34° S 09:12:08 89° ENE 09:18:19 10° N
Cosmos 1553 Rocket 3.9 09:06:48 10° N 09:13:02 77° W 09:16:14 30° S
ATLAS 5 CENTAUR R/B 4.5 09:05:07 27° WSW 09:14:30 49° S 10:24:10 10° ESE
MSX 3.9 09:09:42 10° NNE 09:15:28 72° ESE 09:18:33 28° S
ATLAS 5 CENTAUR R/B 3.9 09:16:06 10° NW 09:16:45 10° NW 09:17:25 10° NNW
DELTA 2 DEB (DPAF) 4.0 09:16:18 46° S 09:17:33 74° WSW 09:22:00 10° NNW
SeaSat 1 2.4 09:13:42 10° NNE 09:18:39 89° ESE 09:20:25 41° SSW
S3M 4.0 09:13:07 10° N 09:19:18 78° E 09:24:41 14° S
Cosmos 2298 Rocket 3.9 09:14:19 10° NNW 09:19:38 72° WSW 09:22:33 27° S
USA 281 3.7 09:14:49 10° SE 09:21:14 61° ENE 09:27:42 10° NNW
Lacrosse 4 Rocket 1.6 09:17:31 10° NW 09:21:02 47° W 09:21:02 47° W
Cosmos 1151 Rocket 2.8 09:21:17 10° N 09:25:33 78° W 09:27:04 39° S
FALCON 9 DEB 3.4 09:23:26 10° NW 09:26:48 64° NE 09:30:09 10° SE
Cosmos 1766 Rocket 4.1 09:27:48 38° WSW 09:28:32 41° W 09:32:46 10° N
Cosmos 1833 Rocket 3.0 09:27:13 24° S 09:30:37 61° ESE 09:36:11 10° NNE
Cosmos 1408 Rocket 3.5 09:29:02 35° S 09:30:53 87° W 09:35:21 10° N
Cosmos 2150 Rocket 4.0 09:25:52 10° NNW 09:31:00 60° WSW 09:34:07 24° S
IKONOS-2 4.4 09:29:49 27° S 09:32:03 82° WSW 09:36:17 10° NNW
Cosmos 1862 3.2 09:30:47 42° SSW 09:32:05 80° W 09:36:08 10° N
NOSS 3-4 (A) 4.3 09:29:34 17° S 09:33:32 38° ESE 09:38:59 10° NE
NOSS 3-4 (C) 4.4 09:29:40 16° S 09:33:41 38° ESE 09:39:06 10° NE
Cosmos 1515 Rocket 4.4 09:29:57 10° N 09:34:16 50° E 09:38:35 10° SSE
Alouette 2 Rocket 3.5 09:31:49 10° NNW 09:35:34 70° W 09:38:45 20° S
Cosmos 1125 Rocket 3.5 09:32:53 10° NNW 09:38:06 64° WSW 09:42:31 14° S
IRS-P3 4.1 09:34:48 10° N 09:40:06 72° WNW 09:43:12 25° SSW
Okean 3 Rocket 4.5 09:39:33 29° W 09:40:22 31° W 09:44:16 10° NNW
BREEZE-M DEB (TANK) 3.0 09:38:51 29° WSW 09:41:17 82° NW 09:44:16 10° NE
CZ-4B R/B 3.5 09:37:19 10° NNE 09:42:36 89° E 09:46:08 21° SSW
ATLAS 2AS CENTAUR R/B 4.5 09:37:42 10° SSE 09:44:17 30° ESE 09:50:54 10° NE
ADEOS Rocket 3.9 09:40:16 23° SSW 09:44:19 39° W 09:50:43 10° NNW
Gbstr 26 Del rocket 4.1 09:42:00 23° S 09:44:22 41° SE 09:49:23 10° ENE
ARIANE 5 R/B 2.4 09:40:17 10° N 09:45:17 81° WNW 09:48:35 22° SSW
SL-16 R/B 3.9 09:45:19 17° W 09:45:39 17° W 09:49:35 10° NW
COSMOS 2441 4.4 09:44:13 10° N 09:48:58 61° WNW 09:51:45 24° SSW
X-37B 3.0 09:46:24 10° NW 09:49:07 25° NNE 09:51:49 10° E
Cosmos 2266 Rocket 4.2 09:47:29 23° SSW 09:51:08 51° W 09:57:02 10° N
RUBIN 8/PSLV 4.5 09:48:52 10° N 09:53:08 80° WNW 09:55:59 21° SSW
Cosmos 2082 Rocket 3.1 09:48:49 10° S 09:54:06 45° ESE 09:59:26 10° NE
Cosmos 883 Rocket 4.4 09:51:14 10° N 09:57:22 81° W 10:03:28 10° S
ASTEX 1 3.9 09:55:57 22° SSW 09:58:37 39° W 10:03:13 10° NNW
ADEOS II 3.9 09:56:27 10° NNW 09:59:21 15° WNW 10:01:29 12° W
CZ-4C R/B 2.9 09:57:15 19° WSW 09:59:57 34° NW 10:04:53 10° NNE
OAO 3 Rocket 3.2 10:00:37 22° WSW 10:03:35 66° SSE 10:08:21 10° E
CZ-2D R/B 3.6 10:04:31 10° N 10:08:33 56° WNW 10:11:32 17° SSW
CZ-2C R/B 1.3 10:07:20 23° SW 10:09:06 45° SSE 10:12:18 10° E
Cosmos 1812 3.3 10:05:50 10° NNW 10:09:22 36° W 10:11:50 17° SSW
GPS 2-04 Rocket1 2.7 10:06:44 10° WNW 10:10:41 76° NNE 10:14:27 10° E
IDEFIX/ARIANE 42P 4.0 10:09:29 10° NNW 10:13:21 21° WNW 10:16:18 14° WSW
CZ-2C R/B 2.9 10:10:42 10° NNE 10:14:30 74° ESE 10:18:14 10° S
Cosmos 1805 Rocket 3.6 10:10:21 10° S 10:14:42 80° E 10:19:06 10° N
FALCON 9 DEB 3.8 10:13:25 10° NW 10:16:25 50° NE 10:19:23 10° ESE
Delta 2 Rocket 3.5 10:14:09 10° W 10:18:09 61° N 10:21:46 10° ENE
Cosmos 1271 Rocket 4.1 10:15:44 10° NW 10:18:29 19° W 10:19:56 16° WSW
COSMOS 2406 3.5 10:14:08 15° SW 10:18:37 51° WNW 10:24:08 10° N
PAYLOAD A 4.1 10:15:47 10° N 10:20:52 71° WNW 10:26:07 10° SSW
IUS-17 SRM-1 4.2 10:10:04 10° WSW 10:23:15 49° S 10:26:36 10° ESE
SL-08 R/B 3.4 10:18:48 10° S 10:23:18 51° W 10:27:53 10° NNW
CENTAUR R/B 3.9 10:15:00 10° NNW 10:23:21 61° ENE 10:32:10 10° SE
FALCON 9 DEB 4.2 10:20:46 10° NNW 10:23:45 43° NE 10:26:43 10° ESE
Spot 4 Rocket 4.2 10:19:10 10° N 10:24:11 57° WNW 10:29:12 10° SSW
FALCON 9 DEB 3.3 10:23:46 10° NW 10:26:49 63° NE 10:29:51 10° SE
Chandra Rocket (1) 3.0 10:20:31 11° WSW 10:27:57 42° S 10:31:13 10° ESE
DELTA 2 R/B (1) 4.1 10:26:12 10° WNW 10:31:43 62° NNE 10:37:13 10° E
Tianhe-1 2.8 10:30:51 10° WNW 10:33:35 26° NNW 10:36:19 10° NE
CZ-2C R/B 2.6 10:30:03 10° N 10:34:48 53° WNW 10:39:23 10° SSW
Cosmos 1656 3.8 10:31:16 10° NNW 10:36:49 54° WSW 10:42:17 10° S
Cosmos 1697 Rocket 2.7 10:44:15 10° NNW 10:49:55 87° WSW 10:55:34 10° SSE
Cosmos 158 Rocket 3.9 10:46:11 10° SSW 10:50:59 62° WNW 10:55:50 10° N
SL-19 R/B 4.5 10:45:33 10° S 10:51:44 69° WSW 10:57:31 10° NNW
